Temp
62 62 62 62 62 62 61 61 61 61 62 62 62 62 62 62 62 62 62 63 63 64 63 64 64 64 68 66 62 75 73 74 75 74 70 69 67 64 59 62 63 58 60 62 62 60 59
62 62 61 61 61 61 61 61 61 61 61 62 62 61 61 61 61 61 62 62 63 63 63 64 64 63 67 60 72 76 73 73 73 72 69 69 65 67 63 61 59 62 61 60 60 59 57
62 61 61 61 61 61 61 61 60 60 61 61 61 61 60 60 61 61 61 62 62 63 63 64 64 70 66 59 74 74 75 70 72 70 67 68 68 64 64 58 62 62 54 56 58 57 55
62 61 61 61 61 60 60 60 60 60 61 61 61 60 60 60 60 60 61 61 62 62 63 64 65 69 58 71 71 73 75 72 73 73 69 68 69 64 62 62 60 55 53 45 56 57 54
62 61 61 60 60 60 60 60 60 60 60 60 60 60 59 59 60 60 60 61 63 63 64 65 66 66 57 70 68 71 72 68 70 70 68 74 67 60 58 52 48 51 42 47 49 58 53
63 62 61 60 60 60 60 60 59 59 60 59 59 59 59 59 59 59 60 61 64 63 66 74 74 61 64 61 66 68 71 69 65 64 63 61 59 53 53 49 39 43 44 49 47 53 53
63 62 61 61 60 60 60 60 59 59 59 59 58 58 58 59 59 59 61 64 62 61 65 58 60 61 63 68 68 66 68 65 65 60 52 56 49 46 50 53 52 51 49 48 50 56 50
63 63 62 61 60 60 59 59 59 59 59 58 58 57 58 58 59 60 60 63 57 58 54 63 63 63 66 65 60 63 68 59 58 52 54 50 45 53 56 55 52 51 47 47 50 54 48
63 63 62 61 61 60 59 59 58 58 58 58 57 57 58 58 59 62 61 58 63 63 56 58 62 62 62 63 58 58 62 58 55 52 52 46 50 57 55 50 50 48 45 46 45 48 50
62 62 62 62 61 60 59 58 58 58 57 57 57 57 57 57 59 62 58 63 63 62 49 53 56 59 63 61 55 63 62 56 54 50 51 50 53 53 49 50 50 43 50 50 48 41 32
62 62 62 61 61 60 59 58 58 57 57 56 56 57 57 58 60 59 58 62 62 56 35 53 55 65 61 56 56 55 60 57 51 53 48 46 48 47 47 49 51 45 49 46 45 40 35
62 62 61 61 60 60 59 58 58 57 57 56 56 56 57 61 60 59 62 61 57 46 34 48 55 53 53 55 56 58 56 58 55 50 50 48 52 50 48 51 50 50 45 44 41 37 24
62 61 61 61 60 60 59 58 57 57 57 56 56 56 60 64 56 60 59 55 45 36 51 48 49 53 52 51 52 52 50 47 43 36 37 46 46 48 50 43 46 44 38 28 25 24 25
60 61 61 60 60 59 59 58 58 57 56 56 55 55 58 61 61 59 55 50 37 50 50 52 52 51 48 51 49 49 46 43 44 43 38 34 32 44 47 43 39 41 40 30 26 26 28
60 60 60 60 60 59 59 58 58 57 56 55 54 58 58 57 59 56 51 41 42 50 54 51 49 45 46 48 45 46 45 44 43 43 38 37 36 44 46 45 44 40 34 41 33 34 26
60 60 59 59 59 59 59 58 58 56 56 55 55 57 57 59 59 53 48 46 47 52 52 52 46 50 45 46 43 44 45 43 42 43 42 38 32 40 42 44 44 39 43 30 30 21 23
60 60 59 59 59 58 58 58 58 56 56 55 53 52 54 59 55 50 42 46 49 53 53 50 48 46 48 46 46 45 43 40 43 41 40 39 36 32 38 36 36 34 33 35 33 29 22
59 60 59 59 58 57 57 57 55 55 55 52 52 46 54 55 47 49 46 49 47 49 50 49 47 47 45 46 44 43 42 41 45 44 37 38 37 29 34 36 39 36 34 36 24 26 30
58 58 59 58 58 57 56 56 55 53 54 48 47 50 54 53 42 44 44 47 48 46 47 47 46 46 46 44 39 42 41 40 42 41 37 39 33 25 26 29 33 30 34 34 34 29 23
57 57 57 57 57 57 56 55 54 52 51 47 45 43 48 49 48 45 45 46 42 44 46 47 45 45 43 41 43 38 39 39 40 42 43 42 33 31 25 28 32 29 30 33 31 19 26
57 57 57 57 57 57 56 55 53 52 52 45 43 42 47 39 43 46 48 46 44 40 44 45 41 44 43 38 39 39 41 36 38 41 38 36 27 31 32 33 32 30 31 31 28 28 20
56 56 56 56 56 57 56 54 53 51 52 42 41 40 47 48 49 47 44 41 43 42 41 40 39 44 43 39 40 37 40 38 35 36 35 37 28 29 25 31 30 28 29 29 30 29 27
56 56 56 56 56 56 56 54 53 51 48 40 41 46 43 44 44 44 42 44 43 43 40 43 45 42 40 40 41 39 39 38 38 35 33 31 28 26 22 26 27 21 22 22 26 22 18
55 55 55 55 55 55 55 54 52 50 47 43 41 41 39 36 40 41 44 44 41 43 39 42 41 39 37 44 42 40 36 36 35 34 34 30 29 27 19 24 10 16 21 19 15 15 14
56 55 55 55 55 55 55 54 53 51 48 42 40 40 38 35 37 38 41 41 39 41 38 38 38 39 42 38 31 28 26 26 29 30 30 32 28 22 16 16 20 14 18 15 12 12 13
55 55 55 55 55 54 54 55 53 52 49 41 39 41 39 36 34 34 36 40 36 36 33 33 39 43 38 33 31 26 25 27 21 22 29 31 29 21 19 12 11 12 21 25 13 6 14
54 55 55 54 54 54 54 54 53 52 48 43 38 40 38 35 30 32 32 34 39 37 33 33 33 32 35 29 28 26 25 25 21 20 18 20 20 16 18 12 14 17 22 24 4 8 19
54 54 54 54 54 54 54 53 52 51 48 43 36 39 38 32 28 31 30 33 34 36 31 34 32 31 28 26 27 24 22 23 22 24 22 21 18 12 14 9 8 23 20 13 14 20 21
53 53 53 53 54 53 53 52 52 50 46 43 34 39 39 32 29 37 36 37 35 35 34 34 32 32 32 28 28 28 25 23 22 14 23 19 24 19 21 17 18 23 19 22 23 21 19
MSLP
1021.80 1021.80 1021.72 1021.69 1021.55 1021.40 1021.28 1021.12 1020.97 1020.58 1020.31 1020.04 1019.77 1019.61 1019.29 1018.93 1018.66 1018.46 1018.25 1018.01 1017.64 1017.44 1017.25 1017.11 1017.00 1016.87 1016.71 1016.45 1016.96 1016.67 1016.53 1016.19 1015.58 1015.32 1015.10 1014.80 1014.34 1014.17 1013.90 1014.07 1014.21 1014.78 1015.65 1016.36 1016.85 1017.22 1018.05
1021.82 1021.88 1021.80 1021.75 1021.78 1021.60 1021.34 1021.15 1020.96 1020.72 1020.47 1020.11 1019.86 1019.56 1019.29 1018.95 1018.68 1018.48 1018.18 1017.90 1017.63 1017.40 1017.21 1017.05 1016.93 1016.91 1016.77 1016.78 1017.12 1016.72 1016.51 1016.23 1015.94 1015.45 1015.32 1015.10 1015.09 1014.78 1014.57 1014.71 1014.95 1015.26 1016.02 1016.95 1017.59 1018.15 1019.01
1021.80 1021.87 1021.82 1021.74 1021.68 1021.64 1021.38 1021.14 1021.02 1020.83 1020.58 1020.28 1019.90 1019.60 1019.28 1019.01 1018.70 1018.36 1017.99 1017.70 1017.52 1017.37 1017.26 1017.07 1016.88 1016.64 1016.41 1017.41 1016.90 1016.73 1016.37 1016.27 1016.12 1015.98 1015.61 1015.80 1015.57 1015.21 1014.95 1015.41 1015.62 1015.87 1016.63 1017.12 1017.57 1018.23 1018.94
1021.88 1021.78 1021.69 1021.74 1021.67 1021.58 1021.48 1021.22 1021.09 1020.86 1020.54 1020.33 1019.97 1019.71 1019.37 1018.97 1018.72 1018.33 1017.90 1017.57 1017.32 1017.28 1017.23 1017.08 1016.91 1016.55 1017.01 1017.22 1017.09 1016.79 1016.34 1016.09 1016.10 1016.06 1016.05 1016.02 1015.72 1015.57 1015.52 1015.94 1016.03 1016.23 1016.45 1017.01 1017.19 1018.07 1019.15
1021.99 1021.83 1021.66 1021.70 1021.69 1021.64 1021.51 1021.25 1021.07 1020.91 1020.45 1020.24 1019.96 1019.80 1019.33 1019.03 1018.68 1018.28 1017.82 1017.52 1017.26 1017.10 1017.11 1016.95 1016.84 1016.47 1017.18 1017.23 1017.17 1016.98 1016.72 1016.46 1016.26 1016.11 1016.12 1015.97 1015.80 1015.87 1016.12 1016.06 1016.22 1016.17 1016.33 1016.57 1017.32 1017.75 1018.96
1022.07 1021.95 1021.78 1021.66 1021.63 1021.60 1021.36 1021.25 1021.06 1020.86 1020.46 1020.23 1020.03 1019.68 1019.33 1018.97 1018.59 1018.17 1017.77 1017.45 1017.24 1017.12 1016.82 1016.41 1016.32 1016.74 1017.28 1017.30 1017.25 1017.16 1016.78 1016.69 1016.41 1016.26 1016.21 1016.12 1016.01 1016.18 1016.24 1016.16 1016.29 1016.08 1016.26 1016.02 1016.51 1017.51 1018.60
1021.99 1021.96 1021.84 1021.78 1021.62 1021.52 1021.39 1021.22 1020.99 1020.76 1020.51 1020.36 1020.05 1019.57 1019.25 1019.02 1018.57 1018.08 1017.68 1017.54 1017.78 1017.55 1016.96 1017.10 1017.14 1017.08 1017.15 1017.20 1017.22 1017.02 1016.95 1016.67 1016.40 1016.40 1016.21 1016.24 1016.45 1016.40 1016.08 1016.15 1016.29 1016.17 1016.16 1016.31 1016.67 1017.30 1018.50
1021.70 1021.90 1021.86 1021.76 1021.60 1021.52 1021.34 1021.19 1020.92 1020.72 1020.48 1020.24 1019.95 1019.64 1019.24 1018.81 1018.46 1018.09 1018.15 1017.81 1018.63 1018.72 1018.09 1017.52 1017.41 1017.37 1017.40 1017.43 1017.13 1017.13 1016.97 1016.79 1016.39 1016.22 1016.40 1016.77 1016.83 1016.76 1016.59 1016.67 1016.69 1016.57 1016.65 1016.67 1017.06 1017.59 1018.61
1021.29 1021.59 1021.78 1021.72 1021.61 1021.52 1021.39 1021.12 1020.90 1020.76 1020.53 1020.26 1019.97 1019.72 1019.17 1018.58 1018.22 1018.08 1018.28 1018.96 1018.95 1018.57 1018.09 1017.69 1017.48 1017.28 1017.52 1017.59 1017.37 1017.52 1017.40 1017.01 1016.61 1016.42 1016.48 1016.76 1017.19 1017.12 1017.09 1017.09 1017.03 1017.00 1017.18 1017.27 1017.83 1018.22 1018.64
1020.97 1021.02 1021.49 1021.62 1021.50 1021.43 1021.37 1021.26 1021.01 1020.70 1020.44 1020.24 1020.00 1019.66 1019.08 1018.51 1018.73 1018.35 1018.70 1018.99 1018.89 1018.71 1018.14 1017.96 1017.56 1017.68 1017.65 1017.53 1017.76 1017.97 1017.97 1017.85 1017.10 1016.97 1016.97 1017.14 1017.53 1017.46 1017.57 1017.56 1017.53 1017.89 1018.07 1018.17 1018.56 1019.09 1019.62
1020.55 1020.56 1020.84 1021.27 1021.40 1021.30 1021.30 1021.28 1021.09 1020.79 1020.48 1020.26 1019.99 1019.59 1019.14 1018.68 1018.50 1018.64 1019.26 1019.04 1018.89 1018.79 1018.49 1017.96 1017.74 1017.86 1017.70 1017.78 1017.96 1018.07 1018.19 1017.74 1017.55 1017.34 1017.66 1017.66 1017.89 1018.11 1018.15 1018.15 1018.12 1018.73 1018.89 1019.16 1019.44 1019.89 1020.32
1020.23 1020.22 1020.27 1020.68 1020.96 1021.13 1021.11 1021.13 1021.05 1020.86 1020.65 1020.39 1020.06 1019.65 1018.96 1018.55 1018.50 1019.29 1019.17 1019.06 1018.98 1018.83 1017.85 1017.64 1017.58 1017.66 1017.69 1017.64 1017.73 1017.83 1017.99 1017.99 1018.06 1018.02 1018.00 1018.29 1018.66 1018.85 1019.12 1019.22 1019.36 1019.52 1019.69 1019.84 1020.30 1020.88 1021.27
1019.67 1019.88 1019.91 1020.13 1020.47 1020.75 1020.97 1021.01 1020.91 1020.83 1020.69 1020.43 1020.07 1019.72 1018.97 1018.52 1019.12 1019.28 1019.27 1019.07 1018.96 1017.94 1017.51 1017.42 1017.20 1017.34 1017.34 1017.45 1017.63 1017.77 1017.95 1018.21 1018.48 1018.78 1018.73 1018.79 1019.09 1019.55 1019.75 1019.88 1020.09 1020.23 1020.53 1020.91 1021.48 1021.77 1021.29
1018.93 1019.20 1019.39 1019.65 1019.93 1020.29 1020.56 1020.75 1020.78 1020.67 1020.55 1020.41 1020.10 1019.75 1019.27 1019.06 1019.09 1019.13 1019.16 1019.03 1018.37 1016.70 1016.53 1016.78 1016.81 1017.05 1017.10 1017.21 1017.65 1017.92 1018.22 1018.57 1018.97 1019.29 1019.43 1019.47 1019.93 1020.22 1020.54 1020.62 1020.69 1020.53 1020.64 1021.12 1021.39 1021.35 1021.54
1018.20 1018.48 1018.71 1019.12 1019.42 1019.77 1020.15 1020.41 1020.67 1020.72 1020.59 1020.33 1020.01 1019.29 1018.97 1019.27 1019.30 1019.31 1019.13 1018.60 1017.00 1016.23 1016.05 1016.41 1016.98 1016.90 1017.03 1017.41 1017.88 1018.03 1018.34 1018.80 1019.43 1019.66 1020.05 1019.91 1020.56 1021.02 1021.03 1021.13 1021.32 1021.15 1021.31 1021.33 1021.72 1021.66 1022.28
1017.40 1017.62 1017.91 1018.40 1018.85 1019.22 1019.58 1019.93 1020.30 1020.55 1020.44 1020.27 1019.85 1019.16 1018.79 1019.11 1019.24 1019.24 1019.06 1017.71 1016.83 1016.65 1016.48 1016.33 1016.33 1016.22 1016.35 1017.03 1017.85 1018.09 1018.40 1019.46 1020.10 1020.39 1020.45 1020.56 1021.02 1021.42 1021.94 1022.02 1021.79 1021.83 1022.03 1022.08 1022.70 1023.19 1022.87
1016.96 1017.00 1017.16 1017.59 1018.09 1018.58 1019.04 1019.41 1019.87 1020.27 1020.32 1020.07 1019.90 1019.37 1019.12 1019.01 1019.20 1019.16 1018.67 1017.70 1017.42 1017.38 1017.17 1017.04 1016.62 1016.53 1016.53 1016.76 1017.32 1017.84 1018.62 1020.24 1020.56 1021.09 1021.17 1021.11 1021.51 1022.44 1022.43 1022.25 1021.97 1022.55 1022.42 1022.66 1023.16 1023.61 1024.02
1017.36 1016.59 1016.90 1017.02 1017.52 1018.11 1018.52 1018.90 1019.40 1019.91 1020.12 1020.07 1019.81 1019.56 1018.95 1019.02 1019.34 1018.31 1018.03 1017.78 1018.04 1017.98 1018.01 1017.72 1017.55 1017.21 1017.11 1017.26 1017.79 1018.42 1019.09 1020.49 1021.25 1021.60 1021.86 1021.94 1022.01 1022.51 1022.54 1022.64 1022.69 1022.57 1022.65 1022.91 1023.77 1024.13 1024.34
1017.32 1016.92 1016.88 1016.80 1016.81 1017.50 1017.89 1018.51 1019.09 1019.66 1019.90 1020.09 1019.78 1019.00 1018.86 1018.81 1018.56 1018.11 1018.11 1018.23 1018.31 1018.54 1018.39 1018.36 1018.21 1018.15 1018.09 1018.08 1018.40 1018.78 1020.35 1022.00 1022.17 1022.23 1022.54 1022.55 1022.82 1022.98 1023.24 1023.69 1023.52 1023.37 1023.32 1023.73 1024.26 1024.89 1025.11
1017.31 1017.20 1017.31 1016.85 1016.65 1017.29 1017.57 1017.94 1019.09 1019.63 1020.08 1020.26 1020.36 1019.45 1018.92 1018.63 1017.87 1017.52 1017.57 1017.94 1018.66 1019.02 1018.95 1018.87 1018.84 1018.87 1018.84 1018.85 1019.00 1019.84 1021.26 1022.60 1023.14 1023.13 1023.20 1023.28 1023.30 1023.07 1023.03 1023.17 1023.41 1023.91 1024.06 1024.45 1025.19 1025.82 1025.51
1017.22 1017.23 1017.26 1017.17 1016.73 1016.82 1017.19 1017.80 1018.78 1019.34 1019.60 1020.48 1020.55 1019.32 1018.08 1018.07 1017.59 1017.30 1017.09 1017.61 1018.40 1019.19 1019.59 1019.49 1019.58 1019.34 1019.15 1019.33 1019.53 1020.22 1021.15 1023.09 1023.71 1023.70 1023.90 1024.05 1024.21 1023.83 1023.62 1023.62 1023.88 1024.23 1024.77 1025.28 1025.72 1025.81 1026.95
1017.13 1016.96 1016.90 1016.92 1016.91 1016.98 1017.02 1017.76 1018.22 1019.00 1019.62 1020.54 1020.61 1019.85 1018.47 1017.62 1016.99 1017.21 1017.46 1017.88 1018.11 1018.78 1019.34 1019.80 1019.89 1019.38 1019.81 1020.05 1020.18 1020.69 1021.45 1022.46 1023.27 1024.24 1024.52 1024.58 1024.61 1024.60 1024.63 1024.52 1025.02 1025.48 1025.84 1025.79 1026.41 1027.01 1027.78
1016.86 1016.86 1017.01 1016.67 1016.64 1016.73 1016.62 1017.24 1018.09 1018.62 1019.29 1019.98 1020.65 1019.80 1019.45 1018.22 1017.74 1017.65 1017.51 1017.36 1017.94 1018.56 1019.66 1019.84 1019.99 1020.20 1020.59 1020.91 1021.08 1021.76 1022.26 1022.68 1023.10 1023.78 1024.75 1025.21 1025.59 1025.71 1025.56 1025.85 1026.39 1026.71 1026.89 1027.36 1027.51 1028.22 1029.42
1016.73 1016.74 1016.64 1016.67 1016.59 1016.53 1016.46 1016.74 1017.50 1018.21 1018.44 1019.16 1020.13 1020.23 1020.16 1019.50 1018.77 1018.32 1017.96 1018.02 1018.52 1019.12 1019.79 1020.44 1020.91 1021.16 1022.03 1021.76 1021.90 1022.78 1023.20 1023.61 1023.84 1024.16 1024.83 1025.32 1025.98 1026.73 1027.00 1027.27 1027.77 1027.88 1028.48 1028.93 1029.63 1030.58 1031.28
1016.14 1016.27 1016.52 1016.41 1016.42 1016.35 1016.24 1016.31 1016.96 1017.76 1018.60 1018.90 1019.84 1020.06 1019.91 1020.09 1019.86 1019.56 1019.45 1019.41 1019.51 1020.14 1020.99 1021.58 1022.36 1022.50 1022.68 1022.53 1022.74 1023.49 1023.83 1024.37 1024.68 1025.22 1025.66 1025.85 1026.22 1027.07 1027.88 1028.16 1027.83 1029.15 1029.60 1030.16 1030.78 1032.28 1032.60
1015.86 1015.90 1016.06 1016.19 1016.23 1016.39 1016.36 1016.22 1016.40 1017.14 1018.23 1019.21 1019.53 1019.73 1020.03 1020.51 1020.88 1021.11 1020.76 1020.63 1020.53 1020.92 1022.12 1022.72 1023.28 1023.00 1023.25 1023.23 1023.37 1023.22 1023.15 1023.70 1025.08 1026.08 1026.49 1026.78 1027.12 1027.73 1028.41 1029.32 1029.38 1029.47 1030.33 1030.69 1031.83 1033.00 1033.11
1015.45 1015.56 1015.80 1015.83 1015.92 1015.87 1015.94 1015.57 1015.85 1016.75 1018.05 1018.82 1019.87 1019.73 1020.15 1021.02 1021.96 1022.13 1022.17 1021.89 1021.00 1021.32 1022.13 1023.03 1023.64 1023.95 1023.88 1023.85 1023.72 1023.30 1023.29 1023.65 1024.62 1025.55 1026.78 1027.50 1028.08 1028.30 1028.95 1029.46 1029.32 1029.86 1030.64 1031.39 1032.74 1033.21 1033.12
1015.14 1015.27 1015.34 1015.21 1015.34 1015.46 1015.48 1015.17 1015.84 1016.58 1017.68 1018.61 1020.24 1020.27 1020.33 1021.19 1022.59 1023.03 1023.14 1022.99 1022.67 1022.47 1022.57 1023.09 1023.63 1023.98 1024.39 1024.12 1023.64 1023.37 1023.58 1024.07 1024.64 1025.15 1025.95 1026.64 1027.81 1028.68 1029.56 1030.04 1030.02 1030.10 1031.28 1032.06 1032.21 1032.40 1033.01
1014.85 1014.66 1014.51 1014.31 1014.38 1014.66 1015.13 1015.46 1015.89 1016.68 1017.84 1018.72 1020.28 1020.52 1020.63 1021.84 1023.34 1023.45 1023.62 1024.12 1023.92 1023.83 1023.38 1022.85 1022.93 1022.76 1023.24 1023.53 1023.53 1023.33 1024.14 1024.70 1025.19 1025.81 1026.02 1026.75 1026.86 1027.34 1028.49 1029.15 1029.54 1030.25 1030.75 1031.39 1031.88 1032.52 1033.41
Wind_Speed
6 7 8 9 10 10 10 10 11 11 11 11 11 11 10 11 11 11 11 11 9 7 7 7 7 8 4 3 4 7 9 10 5 5 5 6 5 4 0 4 1 10 6 8 7 10 10
4 5 6 8 9 9 10 11 11 11 11 11 11 12 12 12 12 11 11 11 9 7 6 6 7 7 4 1 4 7 6 6 8 7 6 8 5 5 4 5 5 5 8 9 7 6 6
1 3 5 6 8 9 10 10 11 11 11 12 12 12 12 12 12 12 12 10 8 7 6 7 7 4 5 3 3 5 3 2 4 6 3 5 5 3 2 5 1 7 6 5 7 8 4
1 2 4 6 7 8 9 9 10 11 12 13 13 14 13 14 13 12 12 10 6 5 7 8 7 4 4 1 6 6 8 0 3 3 3 3 7 2 4 5 3 5 2 4 6 8 6
4 2 2 4 6 8 9 10 10 11 12 13 14 14 15 15 15 13 11 9 6 6 7 8 4 4 4 2 1 5 4 5 4 1 1 2 3 2 2 3 3 5 4 7 5 9 7
8 6 4 4 5 7 8 9 10 11 12 13 13 14 14 15 15 13 10 4 4 6 6 5 4 2 2 1 2 5 2 3 3 1 2 3 2 2 3 3 2 1 5 4 4 9 8
10 9 7 6 6 6 8 9 10 11 12 13 14 15 15 14 14 12 8 2 2 3 6 5 4 1 2 2 3 1 2 5 3 3 2 1 2 4 2 0 4 5 6 7 6 5 5
12 11 10 8 7 7 7 9 10 11 12 13 14 15 15 15 13 11 4 2 3 3 3 1 1 3 1 2 3 4 7 3 3 1 2 2 0 6 6 5 4 5 6 7 4 7 3
12 11 12 11 9 8 7 8 9 11 12 13 14 14 14 13 10 5 5 4 4 5 3 3 1 1 2 4 3 4 7 1 3 3 3 2 3 3 2 2 3 5 5 6 3 2 8
13 12 11 12 10 9 8 8 9 9 11 13 14 15 15 13 2 2 3 3 3 4 3 5 3 2 2 2 2 3 3 3 2 3 2 3 1 1 2 3 2 4 6 5 4 2 4
14 13 12 11 11 9 8 9 9 10 11 11 13 13 14 8 1 1 2 2 2 2 3 2 3 2 1 2 1 2 1 3 3 2 2 2 3 3 4 2 4 3 4 4 4 5 5
15 13 13 12 11 10 9 9 8 10 11 11 12 12 11 3 3 3 2 3 2 3 6 3 3 2 3 3 4 3 1 2 2 2 3 3 2 3 5 4 4 2 3 5 3 1 2
15 14 13 13 12 10 10 9 8 8 10 11 12 10 8 1 2 0 2 2 2 3 1 4 3 4 2 3 4 1 2 3 0 3 3 3 4 4 2 2 2 0 2 4 3 1 7
15 15 13 13 13 12 10 10 9 8 9 10 12 9 2 3 2 1 2 1 4 0 4 1 3 3 4 3 2 3 2 2 2 1 2 3 4 2 1 2 2 5 1 5 6 3 3
18 16 15 15 14 13 11 10 9 7 7 9 10 3 2 3 0 1 1 2 5 2 5 7 3 4 5 3 1 4 6 2 4 2 4 1 3 3 3 1 0 3 4 2 4 5 4
14 18 18 16 16 15 13 11 9 6 5 7 3 2 3 3 0 1 1 5 2 3 2 0 5 6 4 8 4 5 7 1 4 1 2 2 2 1 3 2 3 1 3 1 2 3 6
8 15 16 18 17 15 14 12 9 5 3 4 2 3 2 3 1 1 4 3 3 2 3 2 2 2 5 4 4 4 2 0 1 3 2 3 2 2 1 6 5 3 3 3 0 2 4
13 9 13 13 14 16 15 14 10 4 1 1 2 3 2 2 2 3 3 2 2 3 1 1 2 3 3 3 4 4 2 5 5 3 2 1 1 4 3 3 4 2 2 2 5 4 4
8 11 10 10 10 15 15 14 12 10 5 1 2 1 1 2 4 4 2 3 2 3 3 3 3 2 4 2 3 2 5 1 1 2 0 2 3 3 1 1 2 3 4 3 2 2 7
4 6 9 9 15 16 15 15 15 13 7 4 2 2 1 2 1 1 5 5 5 0 1 1 3 1 3 3 1 1 3 2 1 2 2 2 3 7 7 2 4 5 5 6 7 3 8
6 5 7 8 7 14 16 16 17 16 15 5 2 5 2 5 5 5 4 4 6 4 2 3 2 7 5 5 3 5 5 4 3 4 2 1 4 5 6 6 5 3 7 8 12 10 7
5 5 7 6 5 10 13 16 20 20 16 4 3 3 2 2 2 7 5 7 9 4 8 5 5 8 7 5 1 4 6 6 5 5 4 3 3 4 3 8 8 5 8 10 12 9 9
6 6 7 7 6 8 16 19 21 24 7 3 1 3 2 2 3 4 7 6 8 11 1 3 4 4 6 1 7 6 5 5 4 7 6 5 3 2 4 2 6 7 10 4 3 4 4
7 7 8 9 9 7 6 18 24 27 8 3 3 2 3 4 2 4 3 4 6 5 5 4 2 3 3 7 8 7 7 5 3 5 4 4 3 1 4 3 5 2 2 3 4 3 4
10 10 11 10 10 9 6 16 25 27 15 3 3 3 4 3 1 1 3 1 8 6 3 4 4 4 5 4 3 3 2 2 3 5 3 2 3 2 3 4 3 1 3 3 5 4 0
13 13 12 13 12 12 10 16 25 26 19 4 2 2 2 4 5 2 4 5 2 5 3 3 1 1 1 2 3 6 5 4 4 4 2 1 3 3 3 3 6 3 4 4 4 5 3
14 12 13 15 16 15 13 15 24 24 21 4 3 1 3 3 2 1 3 3 1 3 3 5 5 2 3 3 4 4 4 1 6 6 5 3 2 6 5 4 5 5 7 5 7 7 7
12 11 15 18 19 16 13 17 22 23 20 5 2 2 3 2 3 2 3 2 2 2 4 5 4 1 1 4 3 4 2 4 1 2 6 7 6 4 2 2 9 8 5 6 6 4 5
12 16 19 21 18 13 15 20 20 23 18 7 4 2 4 5 4 3 6 4 3 2 3 4 1 3 5 3 1 2 2 3 2 4 2 4 3 5 6 5 1 9 5 5 4 5 4
Wind_Direction
26 14 13 9 7 7 3 2 360 2 359 360 359 352 354 352 351 348 339 339 340 347 349 346 333 324 291 198 61 340 340 320 315 318 358 346 319 350 71 93 178 89 82 59 82 79 81
33 14 9 7 360 359 1 360 357 355 353 355 352 351 350 348 345 340 334 336 330 335 337 323 322 330 250 207 298 351 333 351 360 346 30 8 16 325 52 46 28 97 121 122 121 106 116
40 7 360 0 358 352 356 358 351 348 348 350 349 349 346 343 340 337 334 334 329 323 313 308 317 297 72 75 343 324 341 22 346 5 38 25 329 308 341 114 64 121 116 144 162 159 127
246 347 354 349 347 347 346 353 348 344 348 348 351 345 342 341 337 336 333 331 322 309 299 294 300 273 64 92 314 19 343 92 24 39 31 346 331 75 360 119 150 192 208 189 153 166 143
254 270 313 331 334 337 342 347 347 341 347 348 348 344 343 340 334 334 326 321 300 289 273 285 263 249 101 170 300 354 3 354 305 68 346 281 280 55 175 214 176 209 246 210 176 182 136
257 264 278 290 308 323 338 341 342 341 347 344 342 343 344 338 335 330 323 290 303 295 239 250 266 212 159 82 352 295 13 305 327 305 220 239 222 209 236 209 188 280 227 246 184 191 160
251 259 266 278 293 312 325 333 339 343 344 341 340 342 339 336 332 329 323 240 220 188 41 34 16 104 100 122 225 85 1 318 213 237 222 114 249 217 218 161 16 338 322 317 75 113 178
244 256 262 266 279 296 314 329 336 338 340 339 340 337 333 333 327 307 294 335 45 350 119 85 157 100 52 329 209 74 329 255 205 203 110 157 334 40 49 31 342 304 284 272 88 138 157
244 241 260 262 267 280 299 318 331 333 336 337 337 330 329 332 322 309 62 52 341 332 253 133 77 30 47 295 52 29 338 298 339 178 168 294 88 58 351 151 263 241 259 306 345 124 219
235 230 245 258 265 276 293 306 318 328 336 336 334 331 330 328 346 328 66 12 341 325 214 147 163 96 203 320 145 2 4 344 205 24 30 36 106 207 207 273 41 287 15 14 323 353 241
233 228 229 242 255 262 274 292 310 323 330 332 332 330 328 335 305 82 57 313 326 269 3 40 101 13 41 325 61 128 334 251 338 91 253 158 160 189 235 28 13 64 10 337 306 272 309
235 233 224 231 240 256 265 279 299 316 322 328 330 323 319 275 85 43 345 315 263 57 256 125 115 147 212 180 144 145 202 192 357 316 196 62 77 357 27 65 24 62 299 242 248 241 310
228 230 225 227 227 236 252 265 279 299 316 327 329 323 328 282 83 103 304 223 59 171 53 172 174 186 264 155 157 262 164 184 230 49 225 151 149 99 318 197 124 44 323 330 327 335 229
227 228 223 224 220 224 238 256 274 297 318 325 323 312 351 38 103 155 215 183 237 267 192 51 136 156 225 129 148 153 188 214 93 250 315 183 303 141 40 52 139 190 213 181 255 246 246
220 222 219 221 220 217 225 235 255 277 311 322 319 211 219 103 242 249 158 201 231 98 109 158 148 207 174 152 296 200 209 71 62 30 204 249 159 120 31 4 256 164 205 31 311 272 283
233 227 216 215 216 215 215 222 237 262 302 334 288 249 136 114 136 234 230 254 143 20 91 199 217 185 212 155 186 191 169 342 141 360 342 130 256 310 119 247 229 286 321 135 295 288 268
244 229 219 209 209 208 209 212 216 231 297 349 263 260 106 122 140 220 211 234 114 54 334 294 311 143 251 157 219 211 90 259 338 139 312 19 127 133 146 207 173 158 224 205 265 204 234
310 234 210 210 211 209 203 200 191 195 222 44 288 235 152 174 145 215 234 39 356 139 359 134 327 349 337 134 201 245 188 61 15 153 173 64 326 249 187 70 25 350 347 177 156 243 227
316 340 221 211 224 218 201 194 183 168 161 52 229 245 194 185 193 207 151 116 324 160 196 175 186 335 26 247 242 198 85 333 101 228 114 160 230 299 281 34 359 219 189 225 24 80 204
297 302 320 274 221 209 199 185 178 155 130 88 323 226 155 206 210 258 148 193 179 55 94 2 107 121 174 212 192 45 140 139 22 303 60 15 268 210 211 124 150 186 209 210 187 201 256
280 278 285 308 297 215 188 180 172 156 146 95 219 243 224 186 224 206 160 125 159 179 284 219 198 233 182 210 184 192 137 137 201 152 203 237 246 253 281 313 323 250 222 244 223 231 233
262 300 300 293 328 223 188 180 169 154 143 89 176 231 248 340 37 170 154 203 188 142 154 212 237 182 218 221 244 144 142 162 183 147 196 150 254 16 291 268 274 284 273 250 252 260 278
261 273 303 302 286 336 201 182 166 158 139 122 273 287 305 164 185 163 195 189 196 131 248 2 217 167 210 133 84 76 59 65 85 145 190 164 222 143 250 26 313 270 251 267 239 87 122
235 264 273 298 295 254 240 180 168 175 154 125 160 128 98 274 222 211 192 142 161 180 136 121 298 220 133 108 90 75 68 61 62 70 50 176 176 54 277 12 256 209 108 135 112 111 108
253 257 271 276 290 282 277 194 177 181 166 111 143 162 147 226 202 8 129 106 95 93 80 108 46 10 171 140 112 158 166 171 124 46 327 48 172 184 209 214 289 177 224 177 137 263 95
290 255 268 278 280 272 252 206 182 184 168 94 92 100 122 126 208 67 151 201 156 137 122 97 46 228 12 204 174 208 204 179 180 140 330 10 17 146 146 208 250 200 136 74 80 280 191
296 262 272 275 278 269 263 209 177 173 162 121 116 208 112 162 90 133 152 227 46 104 108 126 161 138 351 195 203 207 210 90 191 183 164 163 198 204 229 242 281 170 143 145 88 241 156
297 285 282 279 271 255 255 180 168 170 153 120 74 30 79 70 90 42 26 345 49 244 146 130 105 242 160 208 189 207 160 199 151 122 171 163 163 190 184 228 270 144 105 177 196 104 148
305 293 282 274 263 224 183 161 162 150 138 128 118 104 78 69 87 82 102 66 37 4 323 159 295 146 176 165 235 99 135 120 199 223 3 208 182 173 174 208 192 160 97 94 97 126 150